Location: Katzenstein
(51.7484°N, 10.2155°E)
Time: 02:47:51
(UTC+00:00)

SL-08 R/B - Pass Details

Date: 17 February 2020
Orbit: 943 x 1009 km, 83.0° (Epoch: 05 April)

Event Time Altitude Azimuth Distance (km) Brightness Sun altitude
Rises 05:36:18 0° 347° (NNW) 3,675 7.3 -9.0°
Reaches altitude 10° 05:38:51 10° 345° (NNW) 2,714 6.6 -8.7°
Maximum altitude 05:44:56 62° 266° (W) 1,067 4.5 -7.7°
Drops below altitude 10° 05:50:55 10° 187° (S) 2,663 6.9 -6.8°
Sets 05:53:24 0° 184° (S) 3,600 7.6 -6.4°
